Regional Weather Roundup
Issued by NWS Pendleton, OR

Home | Current Version | Previous Version | Text Only | Print | Product List | Glossary On
Versions: 1 2 3 4 5 6 7 8 9 10 11 12 13 14 15 16 17 18 19 20 21 22 23 24 25 26 27 28 29 30 31 32 33 34 35 36 37 38 39 40 41 42 43 44 45 46 47 48 49 50
346
ASUS46 KPDT 290625
RWRPDT
PENDLETON REGIONAL WEATHER ROUNDUP
NATIONAL WEATHER SERVICE PENDLETON OREGON
1100 PM PDT WED SEP 28 2016

NOTE: FAIR INDICATES FEW OR NO CLOUDS BELOW 12,000 FEET WITH NO
SIGNIFICANT WEATHER AND/OR OBSTRUCTIONS TO VISIBILITY.

# INDICATES UNOFFICIAL STATION AND DATA

WAZ520-290710-
EAST SLOPES OF WASHINGTON CASCADES

CITY            SKY/WX      TMP DP  RH  WIND    PRES   REMARKS
#CLE ELUM HS    N/A         50  44  80  CALM    29.95S
#CLE ELUM LAKE  N/A         53  46  77  CALM    29.91F
#GLENWOOD       N/A         45  42  89  CALM    29.95R
#MANASTASH CYN  N/A         52  38  59  CALM    29.98F
#NELSON 3SW     N/A         48  43  83  CALM    30.16S
#NILE           N/A         51  43  74  CALM    29.23R
#RONALD 2NW     N/A         50  N/A N/A N1      30.06S
#TEANAWAY 4NE   N/A         51  47  86  CALM    N/A
#TROUT LAKE 1NE N/A         50  46  86  CALM    29.95R
#TROUT LAKE 1E  N/A         51  48  89  CALM    29.96R
$$

WAZ521-290710-
SIMCOE HIGHLANDS

CITY            SKY/WX      TMP DP  RH  WIND    PRES   REMARKS
#CENTERVILLE 1SWN/A         50  37  61  CALM    29.90S
#GOLDENDALE 1NE N/A         54  30  40  VRB3    N/A
#GOLDENDALE 4W  N/A         51  46  83  CALM    30.00S
#GOODNOE HILLS  N/A         66  41  40  NW2     N/A
#LYLE 6NE       N/A         59  51  75  E3      29.90R
$$

WAZ026-290710-
KITTITAS VALLEY

CITY            SKY/WX      TMP DP  RH  WIND    PRES   REMARKS
ELLENSBURG AP   CLEAR       53  43  69  NE5     29.97S
6HR MIN TEMP:   53; 6HR MAX TEMP:   80; 6HR PCP:  TRACE;

#ELLENSBURG CWU N/A         56  46  69  CALM    29.88R
#ELLENSBURG 3NE N/A         51  43  74  CALM    29.97S
#ELLENSBURG 1E  N/A         50  N/A N/A CALM    N/A
#KITTITAS 4N    N/A         54  41  61  E3      29.97S
#KITTITAS 3S    N/A         53  48  83  CALM    29.92S
#THORP 6N       N/A         54  48  80  N7      29.95S
$$

WAZ027-290710-
YAKIMA VALLEY

CITY            SKY/WX      TMP DP  RH  WIND    PRES   REMARKS
SUNNYSIDE AP    CLEAR       51  46  83  CALM    29.93R
YAKIMA AIRPORT  CLEAR       56  42  59  W7      29.95R
6HR MIN TEMP:   55; 6HR MAX TEMP:   82; 6HR PCP:  0.12;

YAKIMA-VAGABOND CLEAR       61  41  48  E8      29.94R
6HR MIN TEMP:   57; 6HR MAX TEMP:   79;

#GRANDVIEW      N/A         57  45  64  CALM    29.92R
#MABTON         N/A         58  44  60  CALM    29.92R
#NACHES 2SW     N/A         62  48  60  W5      29.97S
#TERRACE HTS    N/A         58  44  60  CALM    29.87S
#TOPPENISH      N/A         58  48  69  CALM    29.82S
#WEST VALLEY    N/A         57  45  64  CALM    29.90R
#WHITE SWAN 5E  N/A         54  44  69  CALM    29.91S
#WILEY CITY 3W  N/A         58  38  47  CALM    29.93R
$$

WAZ028-290710-
LOWER COLUMBIA BASIN...WASHINGTON

CITY            SKY/WX      TMP DP  RH  WIND    PRES   REMARKS
HANFORD         MOCLEAR     65  36  34  W9      29.90S
PASCO           CLEAR       54  49  83  CALM    29.92R
6HR MIN TEMP:   54; 6HR MAX TEMP:   82;

PROSSER AWOS    N/A         52  46  80  CALM    29.96R
RICHLAND AWOS   CLEAR       58  46  64  CALM    29.91S
#BENTON CITY    N/A         60  45  58  CALM    29.81R
#CONNELL 5N     N/A         55  40  57  N1      29.89S
#CONNELL 5NW    N/A         54  43  66  CALM    29.85S
#ELTOPIA 6NW    N/A         63  45  52  CALM    28.89S
#KAHLOTUS       N/A         64  40  41  CALM    29.88S
#KENNEWICK 3S   N/A         66  43  43  CALM    29.90R
#PATERSON       N/A         61  47  60  CALM    29.89R
#SAGEMOOR 2W    N/A         61  46  58  CALM    29.75R
#TOUCHET 2S     N/A         53  46  77  CALM    29.88S
#WEST PASCO     N/A         58  47  67  CALM    29.88S
$$

WAZ029-290710-
FOOTHILLS OF THE BLUES...WASHINGTON

CITY            SKY/WX      TMP DP  RH  WIND    PRES   REMARKS
WALLA WALLA AP  CLEAR       62  45  54  E7      29.92F
6HR MIN TEMP:   60; 6HR MAX TEMP:   76;

#CLYDE 6NW      N/A         54  42  64  CALM    29.89S
#DAYTON SCHOOL  N/A         55  40  57  CALM    29.95F
#LOWDEN 2SE     N/A         55  47  74  CALM    29.88R
#PLEASANT VIEW 1N/A         64  43  46  SW5     29.91S
#PRESCOTT       N/A         55  45  69  CALM    29.89S
#WHITMAN COLLEGEN/A         64  47  54  S1      29.93F
#WAITSBURG 5S   N/A         57  43  59  N2      29.98S
#WALLA WALLA U  N/A         62  49  62  CALM    29.89S
#WHITMAN MISSIONN/A         56  49  77  CALM    29.91S
$$

WAZ030-290710-
BLUE MOUNTAINS...WASHINGTON

CITY            SKY/WX      TMP DP  RH  WIND    PRES   REMARKS
#DIXIE 5SE      N/A         64  42  45  NE5     29.92S
$$

ORZ009-041-WAZ024-290710-
COLUMBIA RIVER GORGE

CITY            SKY/WX      TMP DP  RH  WIND    PRES   REMARKS
HOOD RIVER AP   CLEAR       57  52  83  CALM    29.97R
THE DALLES AP   CLEAR       66  51  58  W6      29.93R
6HR MIN TEMP:   66; 6HR MAX TEMP:   82;

#ARLINGTON AIRPON/A         65  43  45  NW3     29.91S
#CELILO DOT     N/A         68  50  53  SW3     N/A
#MOSIER 1S      N/A         62  41  46  CALM    29.94S
#MURDOCK        N/A         67  53  61  W12     29.89S
#RUFUS DOT      N/A         67  43  42  SE6     N/A
#SMITHVILLE     N/A         66  52  61  N10     29.87R

$$

ORZ510-290710-
NORTH CENTRAL OREGON

CITY            SKY/WX      TMP DP  RH  WIND    PRES   REMARKS
#ANTELOPE       N/A         54  37  52  CALM    29.77R
#CHENOWITH 1W   N/A         58  50  75  W17     N/A
#COW CYN RST AREN/A         62  N/A N/A N3      N/A
#DUFUR 9E       N/A         62  50  65  CALM    29.95S
#GRASS VALLEY 1SN/A         57  39  51  CALM    29.93S
#KENT DOT       N/A         59  33  37  N3      N/A
#MAUPIN SCHOOL  N/A         62  44  52  CALM    29.98R
#SHANIKO 5WSW   N/A         60  32  35  N16     N/A
#SHANIKO 4NW    N/A         59  36  42  E9      30.01S
#TYGH VALLEY 2NEN/A         58  44  60  CALM    29.91S
#WAPANITIA AIRPON/A         57  46  67  W1      29.93S
#WASCO AIRPORT  N/A         60  46  60  W3      N/A
#WASCO 5NE      N/A         57  46  67  CALM    29.91S
$$

ORZ511-290710-
CENTRAL OREGON

CITY            SKY/WX      TMP DP  RH  WIND    PRES   REMARKS
BEND AIRPORT    CLEAR       59  41  51  CALM    30.02R
MADRAS AIRPORT  CLEAR       59  43  55  N5      30.01R
PRINEVILLE AP   CLEAR       57  37  47  W5      30.01R
REDMOND AIRPORT CLEAR       61  37  41  NW6     30.00R
6HR MIN TEMP:   59; 6HR MAX TEMP:   79;

#ASHWOOD SCHOOL N/A         57  37  47  CALM    29.96R
#BEND 1SW       N/A         50  40  68  N2      N/A
#BEND-AWBREY    N/A         58  43  57  CALM    29.90R
#CULVER         N/A         57  41  55  CALM    29.85R
#CULVER 8W      N/A         56  41  57  CALM    30.00R
#LAKE BILLY CHINN/A         61  N/A N/A CALM    30.06R
#MADRAS 4S      N/A         N/A N/A N/A N10     30.05F
#POWELL BUTTE 3EN/A         59  40  49  N2      N/A
#PRINEVILLE 3N  N/A         57  43  59  E3      29.90R

$$


ORZ509-290710-
EAST SLOPES OF OREGON CASCADES

CITY            SKY/WX      TMP DP  RH  WIND    PRES   REMARKS
#BLUE BOX PASS  N/A         51  N/A N/A CALM    N/A
#CAMP SHERMAN   N/A         48  41  77  CALM    29.98F
#LA PINE DOT    N/A         58  38  47  NW6     N/A
#LA PINE 4NW    N/A         54  41  61  CALM    29.93S
#LAVA BUTTE DOT N/A         51  37  59  CALM    N/A
#SISTERS AIRPOR N/A         48  43  83  CALM    30.17S
#SISTERS ODOT   N/A         49  N/A N/A CALM    N/A
#SISTERS 3N     N/A         47  33  58  CALM    30.00S
#SUNRIVER       N/A         53  42  66  CALM    29.93S
#SUTTLE LK DOT  N/A         48  45  89  CALM    N/A
#TUMALO 3W      N/A         61  42  50  N2      29.77R
#WANOGA BUTTE D N/A         53  39  59  N1      N/A

$$

ORZ044-290710-
LOWER COLUMBIA BASIN...OREGON

CITY            SKY/WX      TMP DP  RH  WIND    PRES   REMARKS
HERMISTON       CLEAR       56  45  66  CALM    29.92R
6HR MIN TEMP:   53; 6HR MAX TEMP:   81;

#BOARDMAN SCHOOLN/A         55  44  66  CALM    29.91S
#BOARDMAN 8SW   N/A         62  42  48  N2      29.90S
#I-84 EX 198 DOTN/A         63  45  52  NE10    N/A
#UMATILLA       N/A         59  43  55  CALM    29.84R
$$

ORZ507-290710-
NORTHERN FOOTHILLS OF THE BLUES

CITY            SKY/WX      TMP DP  RH  WIND    PRES   REMARKS
PENDLETON AIRPT CLEAR       57  42  57  SE8     29.94S
6HR MIN TEMP:   57; 6HR MAX TEMP:   76;

#ADAMS 3WNW     N/A         51  42  71  CALM    29.91S
#ATHENA         N/A         50  42  74  CALM    29.94S
#CAYUSE         N/A         59  46  62  E6      29.89S
#HELIX SCHOOL   N/A         51  41  68  CALM    29.91S
#HELIX 3N       N/A         61  43  51  N1      29.93S
#HOLDMAN 5SE    N/A         56  43  62  CALM    29.93S
#HOLDMAN 6E     N/A         60  43  53  CALM    29.71S
#M-F GROVE ELEM N/A         60  42  51  CALM    29.90F
#M-FREEWATER 5SEN/A         60  46  60  NW1     29.93S
#PENDLETON DNTN N/A         56  38  51  CALM    29.98R
#PDT AQUATIC CTRN/A         57  37  47  CALM    29.96S
#PDT SUNRIDGE   N/A         55  43  64  CALM    29.96R
#PENDLETON 7NW  N/A         57  43  59  CALM    32.46S
#PILOT ROCK 1S  N/A         58  39  49  S2      29.97R
#PILOT ROCK     N/A         56  41  57  SW2     29.98S
#TUTUILLA       N/A         50  43  77  CALM    29.93R
#UMAPINE 2E     N/A         59  48  67  CALM    29.89R
#WESTON SCHOOL  N/A         59  40  49  CALM    29.81F

$$

ORZ508-290710-
SOUTHERN FOOTHILLS OF THE BLUES

CITY            SKY/WX      TMP DP  RH  WIND    PRES   REMARKS
LEXINGTON       CLEAR       59  39  47  SE10    29.99R
#AJAX           N/A         64  34  33  CALM    27.73S
#CONDON SCHOOL  N/A         59  40  49  CALM    29.95S
#CONDON 5W      N/A         62  37  39  E3      29.98S
#FOSSIL SCHOOL  N/A         51  36  56  CALM    29.95S
#HEPPNER EOC    N/A         56  39  53  E6      29.86R
#HEPPNER 4NE    N/A         59  40  49  SE7     29.91S
#LEXINGTON 2SE  N/A         57  41  55  SE2     29.91S
#RUGGS 5NE      N/A         54  35  48  W1      30.17R
#RUGGS 2SW      N/A         57  39  51  S7      29.93S

$$

ORZ502-503-290710-
BLUE MOUNTAINS

CITY            SKY/WX      TMP DP  RH  WIND    PRES   REMARKS
MEACHAM         CLEAR       45  37  73  CALM    30.04R
6HR MIN TEMP:   45; 6HR MAX TEMP:   68;

#BATTLE MTN DOT N/A         51  36  56  CALM    N/A
#CUTSFORTH PARK N/A         45  41  86  CALM    29.82R
#GREENHORN 9SW  N/A         48  38  68  CALM    26.22R
#HARDMAN 10S    N/A         56  39  53  CALM    30.00R
#HEPPNER 15SE   N/A         50  41  71  CALM    25.57F
#LADD CYN SMT   N/A         54  39  57  CALM    N/A
#LADD CREEK ODOTN/A         58  41  53  S2      N/A
#LONG CREEK HS  N/A         54  45  71  CALM    30.02R
#N POWDER DOT   N/A         51  40  66  W2      N/A
#PIKES PEAK     N/A         64  43  46  N6      27.99S
#TOLLGATE       N/A         54  44  69  CALM    29.93S
#TROY SCHOOL    N/A         59  48  67  CALM    29.72R
#UKIAH          N/A         46  40  79  CALM    29.87R
#WESTON 4E      N/A         58  41  53  CALM    29.87R
$$

ORZ505-290710-
JOHN DAY BASIN

CITY            SKY/WX      TMP DP  RH  WIND    PRES   REMARKS
JOHN DAY        CLEAR       64  41  43  W8      30.01R
#DAYVILLE SCHOOLN/A         64  39  40  CALM    29.93R
#MITCHELL       N/A         55  42  61  CALM    30.17S
#MITCHELL 8NW   N/A         63  38  39  CALM    30.07F
#MONUMENT HS    N/A         58  42  55  CALM    29.89R
#MT. VERNON 5SE N/A         60  42  51  CALM    29.97R
#SPRAY SCHOOL   N/A         56  N/A N/A CALM    N/A
$$

ORZ506-290710-
OCHOCO AND JOHN DAY HIGHLANDS

CITY            SKY/WX      TMP DP  RH  WIND    PRES   REMARKS
#BUCK CREEK DOT N/A         64  43  46  N5      N/A
#HORSE RIDGE DO N/A         48  38  68  CALM    N/A
#PAULINA SCHOOL N/A         63  39  41  W1      N/A
#PINE MTN OBS   N/A         53  39  59  CALM    N/A
#PRAIRIE CITY   N/A         53  42  66  CALM    30.14R
#SENECA         N/A         50  N/A N/A CALM    N/A
#SENECA 9NW     N/A         50  38  63  CALM    29.88R
$$

ORZ049-290710-
GRANDE RONDE VALLEY

CITY            SKY/WX      TMP DP  RH  WIND    PRES   REMARKS
LA GRANDE       CLEAR       59  36  42  E3      29.97R
#COVE SCHOOL    N/A         54  42  64  CALM    30.00S
#COVE 6NW       N/A         54  42  64  CALM    29.85S
#ELGIN 3N       N/A         56  39  53  CALM    29.95R
#ELGIN 1E       N/A         59  42  53  CALM    N/A
#IMBLER SCHOOL  N/A         55  42  61  CALM    29.93S
#ISLAND CITY 4N N/A         53  47  80  CALM    29.99S
#LADD CYN DOT   N/A         62  42  48  SE7     N/A
#LA GRANDE ELEM N/A         65  42  43  W12     29.99S
#UNION 1S       N/A         58  43  57  CALM    29.87R
$$

ORZ050-290710-
WALLOWA COUNTY

CITY            SKY/WX      TMP DP  RH  WIND    PRES   REMARKS
JOSEPH AIRPORT  CLEAR       54  41  61  S3      30.04S
#IMNAHA SCHOOL  N/A         62  46  56  N2      29.93R
#IMNAHA 10S     N/A         63  39  41  SW5     29.97R
#JOSEPH 3N      N/A         47  35  63  CALM    30.05S
#JOSEPH 3W      N/A         59  41  51  SW1     29.90S
#LOSTINE        N/A         54  42  64  S1      29.69R
#LOSTINE 3SE    N/A         56  43  62  S5      30.00S
#MT HOWARD 8000 N/A         58  30  34  SE8     30.28F
#PROMISE 1S     N/A         57  45  64  CALM    29.96F
#WALLOWA SCHOOL N/A         52  46  80  CALM    29.95R



$$



USA.gov is the U.S. government's official web portal to all federal, state and local government web resources and services.